Location: Norderney
(53.7000°N, 7.1500°E)
Time: 08:21:09
(UTC+02:00)

X-37B - Pass Details

Date: 24 June 2021
Orbit: 383 x 392 km, 45.0° (Epoch: 01 July)

Event Time Altitude Azimuth Distance (km) Brightness Sun altitude
Rises 23:08:42 0° 222° (SW) 2,251 4.3 -6.8°
Reaches altitude 10° 23:11:34 10° 193° (SSW) 1,400 3.0 -7.0°
Maximum altitude 23:13:07 13° 164° (SSE) 1,236 2.5 -7.1°
Drops below altitude 10° 23:14:40 10° 134° (SE) 1,402 2.8 -7.2°
Enters shadow 23:15:02 - 129° (SE) 1,486 2.9 -7.3°
